Date,TemperatureHighF,TemperatureAvgF,TemperatureLowF,DewpointHighF,DewpointAvgF,DewpointLowF,HumidityHigh,HumidityAvg,HumidityLow,PressureMaxIn,PressureMinIn,WindSpeedMaxMPH,WindSpeedAvgMPH,GustSpeedMaxMPH,PrecipitationSumIn
2013-2-1,5.0,-2.7,-10.0,-99.9,-99.9,-99.9,0,0,100,0.00,40.00,5,1,14,0.00
2013-2-2,14.0,0.7,-13.0,-99.9,-99.9,-99.9,0,0,100,0.00,40.00,3,0,6,0.00
2013-2-3,12.0,3.2,-11.0,-99.9,-99.9,-99.9,0,0,100,0.00,40.00,10,2,20,0.00
2013-2-4,16.0,-3.0,-20.0,-99.9,-99.9,-99.9,0,0,100,0.00,40.00,3,0,12,0.00
2013-2-5,23.0,10.4,-4.0,-99.9,-99.9,-99.9,0,0,100,0.00,40.00,12,2,17,0.14
2013-2-6,24.0,12.1,-5.0,-99.9,-99.9,-99.9,0,0,100,0.00,40.00,6,1,12,0.12
2013-2-7,24.0,20.3,17.0,-99.9,-99.9,-99.9,0,0,100,0.00,40.00,8,2,21,0.03
2013-2-8,26.0,11.7,1.0,-99.9,-99.9,-99.9,0,0,100,0.00,40.00,7,1,13,0.00
2013-2-9,31.0,17.5,-1.0,-99.9,-99.9,-99.9,0,0,100,0.00,40.00,10,3,20,0.00
2013-2-10,32.0,26.7,21.0,-99.9,-99.9,-99.9,0,0,100,0.00,40.00,9,3,20,0.60
2013-2-11,33.0,27.8,19.0,-99.9,-99.9,-99.9,0,0,100,0.00,40.00,6,1,14,0.39
2013-2-12,24.0,19.1,9.0,-99.9,-99.9,-99.9,0,0,100,0.00,40.00,7,2,13,0.01
2013-2-13,38.0,24.3,9.0,-99.9,-99.9,-99.9,0,0,100,0.00,40.00,5,1,8,0.00
2013-2-14,31.0,24.4,13.0,-99.9,-99.9,-99.9,0,0,100,0.00,40.00,7,2,14,0.03
2013-2-15,20.0,11.2,-1.0,-99.9,-99.9,-99.9,0,0,100,0.00,40.00,7,2,13,0.01
2013-2-16,17.0,3.4,-12.0,-99.9,-99.9,-99.9,0,0,100,0.00,40.00,5,0,10,0.00
2013-2-17,25.0,2.3,-20.0,-99.9,-99.9,-99.9,0,0,100,0.00,40.00,9,2,15,0.00
2013-2-18,38.0,29.7,20.0,-99.9,-99.9,-99.9,0,0,100,0.00,40.00,8,2,13,0.04
2013-2-19,26.0,12.4,3.0,-99.9,-99.9,-99.9,0,0,100,0.00,40.00,13,4,23,0.16
2013-2-20,20.0,10.4,2.0,-99.9,-99.9,-99.9,0,0,100,0.00,40.00,7,2,16,0.01
2013-2-21,28.0,15.2,-2.0,-99.9,-99.9,-99.9,0,0,100,0.00,40.00,6,2,14,0.00
2013-2-22,26.0,21.2,16.0,-99.9,-99.9,-99.9,0,0,100,0.00,40.00,8,2,14,0.10
2013-2-23,35.0,22.7,11.0,-99.9,-99.9,-99.9,0,0,100,0.00,40.00,2,0,7,0.01
2013-2-24,34.0,25.6,15.0,-99.9,-99.9,-99.9,0,0,100,0.00,40.00,3,0,7,0.01
2013-2-25,36.0,29.1,23.0,-99.9,-99.9,-99.9,0,0,100,0.00,40.00,7,1,9,0.00
2013-2-26,35.0,27.5,10.0,-99.9,-99.9,-99.9,0,0,100,0.00,40.00,8,3,17,0.00
2013-2-27,32.0,28.8,27.0,-99.9,-99.9,-99.9,0,0,100,0.00,40.00,13,6,25,0.00
2013-2-28,28.0,24.5,19.0,-99.9,-99.9,-99.9,0,0,100,0.00,40.00,12,6,22,0.00